sat.trackr.live / text

‹ back to catalog

STARLINK-35917

NORAD 66503 · 2025-263U

PAYLOAD ACTIVE UNKNOWN

§ Identity

Operator
Country
US
Launch date
2025-11-15
Launch site
AFETR
Launch vehicle
Mass (kg)
RCS (m²)

Purposes: comms

External: N2YO · Heavens-Above · Gunter

§ Orbital elements

Epoch: 2026-05-25T02:27:48.487392Z

Period
94.27 min
Inclination
42.9996°
Eccentricity
0.0000771
Mean motion
15.27591411 rev/d
Perigee alt
482.5 km
Apogee alt
483.5 km
Semi-major
6,861.2 km
B*
4.3124e-4
RAAN
279.2897°
Arg perigee
217.7120°
Mean anomaly
142.3677°
Rev number
3,058

§ Raw data

STARLINK-359171 66503U 25263U   26145.10264453  .00011628  00000+0  43124-3 0  99952 66503  42.9996 279.2897 0000771 217.7120 142.3677 15.27591411 30582

JSON: /api/v1/satellites/66503 · /tle

For live sub-satellite position, see the globe view (requires WebGL).

§ Visibility from observer

Set your observer location to see the next 7 days of passes ≥ 10°. The values pass through the URL so the page stays shareable.

No JS? Fill the form by hand. The geolocation button needs JavaScript.